Regional Weather Roundup
Issued by NWS

Home | Current Version | Previous Version | Text Only | Print | Product List | Glossary On
Versions: 1 2 3 4 5 6 7 8 9 10 11 12 13 14 15 16 17 18 19 20 21 22 23 24 25 26 27 28 29 30 31 32 33 34 35 36 37 38 39 40 41 42 43 44 45 46 47 48 49 50
000
ASUS43 KMPX 301510
RWRMN
WEATHER ROUNDUP FOR MINNESOTA
NATIONAL WEATHER SERVICE TWIN CITIES/CHANHASSEN MN
1000 AM CDT TUE AUG 30 2016


NOTE: "FAIR" INDICATES FEW OR NO CLOUDS BELOW 12,000 FEET WITH NO
SIGNIFICANT WEATHER AND/OR OBSTRUCTIONS TO VISIBILITY. N/A MEANS
CURRENT SKY AND/OR WEATHER CONDITIONS ARE NOT AVAILABLE.

MNZ060>063-068>070-301600-
   Twin Cities Metro

CITY           SKY/WX    TMP DP  RH WIND       PRES   REMARKS
TWIN CITIES    PTSUNNY   72  65  78 N13       30.18R
ST PAUL        PTSUNNY   71  65  81 N7        30.18R
CRYSTAL        CLOUDY    70  61  73 N9        30.18R
BLAINE         PTSUNNY   70  66  88 N6        30.19R
LAKEVILLE      CLOUDY    70  68  94 N7        30.18R
EDEN PRAIRIE   CLOUDY    72  64  76 N9        30.18R
LAKEVILLE      CLOUDY    70  68  94 N7        30.18R
SOUTH ST PAUL  CLOUDY    71  67  87 N9        30.18R
LAKE ELMO      FAIR      70  64  83 N7        30.19S
$$
MNZ001>005-007-008-013>017-022>024-027-028-301600-
   Northwest Minnesota

CITY           SKY/WX    TMP DP  RH WIND       PRES   REMARKS
BEMIDJI        SUNNY     64  52  65 N6        30.24S
HALLOCK        SUNNY     63  52  67 W3        30.24S
ROSEAU         SUNNY     64  55  72 W5        30.24S
WARROAD        SUNNY     63  54  72 W7        30.24S
THIEF RVR FALL SUNNY     64  53  67 SW7       30.26S
CROOKSTON      SUNNY     63  55  77 NW3       30.26S
FOSSTON        SUNNY     64  59  82 CALM      30.25S
DETROIT LAKES  SUNNY     64  54  68 CALM      30.26S
MOORHEAD       SUNNY     64  55  72 NW3       30.25S
MAHNOMEN       FAIR      64  56  77 W3        30.25S
$$
MNZ006-009>011-018-025>026-301600-
   North Central Minnesota

CITY           SKY/WX    TMP DP  RH WIND       PRES   REMARKS
BAUDETTE       SUNNY     63  53  70 NW9       30.22S
FLAG ISLAND    SUNNY     61  50  67 CALM      30.21S
INTL FALLS     SUNNY     64  53  67 NW10      30.21S
WASKISH        SUNNY     64  55  72 NW5       30.23S
BIG FORK       SUNNY     64  54  68 N5        30.22S
LONGVILLE      SUNNY     64  54  68 NW6       30.22S
GRAND RAPIDS   SUNNY     63  56  78 N9        30.23S
CRANE LAKE     MOSUNNY   61  55  82 NW3       30.21S
ORR            SUNNY     63  54  72 CALM      30.18S
COOK           SUNNY     63  54  72 N6        30.21S
WALKER         FAIR      63  55  75 NW3       30.24R
$$
MNZ012-019>021-037-301600-
   Northeast Minnesota

CITY           SKY/WX    TMP DP  RH WIND       PRES   REMARKS
DULUTH         CLOUDY    66  56  70 N7        30.19R
ELY            SUNNY     63  52  67 N3        30.19R
HIBBING        SUNNY     62  53  72 N10       30.20F
EVELETH        SUNNY     63  50  63 N8        30.21S
DULUTH HARBOR  MOSUNNY   66  59  77 NE6       30.18S
TWO HARBORS    SUNNY     70  57  64 CALM      30.16R
SILVER BAY     SUNNY     68  55  64 N6        30.15S
GRAND MARAIS     N/A     70  42  36 VRB3      30.13S
G MARAIS ARPRT SUNNY     63  48  59 N8        30.17S
$$
MNZ029>031-032-039>041-046>048-054>057-064-301600-
   West Central Minnesota

CITY           SKY/WX    TMP DP  RH WIND       PRES   REMARKS
FERGUS FALLS   SUNNY     70  55  60 NE6       30.25S
WHEATON        SUNNY     70  61  73 NE5       30.25S
MORRIS         MOSUNNY   70  57  64 N8        30.23R
ALEXANDRIA     SUNNY     68  51  54 NE8       30.25S
ELBOW LAKE     FAIR      67  56  68 NE6       30.24S
WADENA         SUNNY     66  54  63 N5        30.23F
GLENWOOD       SUNNY     66  54  63 N14       30.24R
APPLETON       SUNNY     70  61  73 CALM      30.23R
BENSON         SUNNY     70  57  64 E5        30.23R
ORTONVILLE     MOSUNNY   70  57  64 CALM      30.23S
MADISON        CLOUDY    70  61  73 N6        30.23S
WILLMAR        FAIR      68  61  77 NE6       30.23S
$$
MNZ033>034-036-042>043-049>051-058-059-301600-
   Central Minnesota

CITY           SKY/WX    TMP DP  RH WIND       PRES   REMARKS
ST CLOUD       PTSUNNY   67  61  81 N3        30.21R
SAUK CENTRE    FAIR      66  52  60 N8        30.24R
PAYNESVILLE    MOSUNNY   68  58  68 N8        30.23R
AITKIN         MOSUNNY   68  54  60 N8        30.20S
PINE RIVER     SUNNY     66  54  63 N10       30.25S
BRAINERD       SUNNY     66  51  58 N10       30.22S
STAPLES        SUNNY     66  52  59 N7        30.23S
LONG PRAIRIE   FAIR      63  52  67 N8        30.24R
LITTLE FALLS   MOSUNNY   64  52  63 N5        30.22S
LITCHFIELD     CLOUDY    68  63  83 N8        30.22S
BUFFALO        CLOUDY    68  61  78 N6        30.21S
MAPLE LAKE     CLOUDY    68  63  85 N7        30.22R
HUTCHINSON     SUNNY     69  64  83 N8        30.22R
$$
MNZ037-044-045-052-053-301600-
   East Central Minnesota

CITY           SKY/WX    TMP DP  RH WIND       PRES   REMARKS
PRINCETON        N/A     68  63  83 N6        30.21R
MORA           CLOUDY    66  57  72 N3        30.22R
CAMBRIDGE      CLOUDY    70  57  64 N7        30.19R
RUSH CITY      PTSUNNY   68  62  81 N7        30.20R
MOOSE LAKE     PTSUNNY   64  55  72 N7        30.18S
HINCKLEY       FAIR      68  61  77 N7        30.20R
CLOQUET        CLOUDY    64  55  72 N6        30.20R
MCGREGOR       MOSUNNY   64  57  77 N9        30.21S
$$
MNZ071>073-080-081-089-090-097-098-301600-
   Southwest Minnesota

CITY           SKY/WX    TMP DP  RH WIND       PRES   REMARKS
MONTEVIDEO     CLOUDY    70  63  78 NE9       30.24R
GRANITE FALLS  FOG       68  67  96 NW7       30.23S VSB 3/4
CANBY          CLOUDY    67  63  85 N5        30.24S
MARSHALL       CLOUDY    68  65  90 N12       30.22S
REDWOOD FALLS  CLOUDY    71  67  87 CALM      30.20S
OLIVIA         CLOUDY    70  66  88 N9        30.20S
PIPESTONE        N/A     70  64  83 NE1       30.22R
WINDOM         CLOUDY    70  64  83 N6        30.24R
WORTHINGTON    CLOUDY    71  65  81 S6        30.22R
JACKSON        MOSUNNY   72  64  78 CALM      30.22R
TRACY          CLOUDY    68  67  96 N6        30.22R
SLAYTON        CLOUDY    68  64  88 NE3       30.24R
$$
MNZ065>067-074>077-082>085-091>093-301600-
   South Central Minnesota

CITY           SKY/WX    TMP DP  RH WIND       PRES   REMARKS
NEW ULM        CLOUDY    70  66  88 N5        30.20S
ST JAMES       CLOUDY    68  64  88 CALM      30.23R
FAIRMONT       CLOUDY    68  65  90 NE6       30.23R
GLENCOE        CLOUDY    68  68 100 N7        30.20R
FARIBAULT      CLOUDY    73  66  78 NW8       30.19R
OWATONNA       MOSUNNY   72  64  78 CALM      30.20R
WASECA         CLOUDY    72  66  83 N9        30.21S
ALBERT LEA     CLOUDY    72  64  78 N8        30.21R
$$
MNZ078>079-086>088-094>096-301600-
   Southeast Minnesota

CITY           SKY/WX    TMP DP  RH WIND       PRES   REMARKS
ROCHESTER      CLOUDY    73  64  73 N9        30.21R
RED WING       CLOUDY    73  64  73 NW6       30.16R
STANTON        PTSUNNY   72  66  83 N6        30.18R
DODGE CENTER   CLOUDY    72  64  78 N8        30.21R
WINONA         MOSUNNY   73  63  68 CALM      30.17S
AUSTIN         CLOUDY    72  64  78 N7        30.20R
PRESTON        CLOUDY    70  65  84 N6        30.19R
$$
ABBREVIATIONS USED IN REMARKS
   TC - TEMPERATURES IN CELSIUS
  WCI - WIND CHILL INDEX
   HX - HEAT INDEX
  VSB - VISIBILITY
$$



USA.gov is the U.S. government's official web portal to all federal, state and local government web resources and services.